TOURFACTS.DK  
Stats and Facts from Tour de France.

Tour de France 2018 starts in 254 days
  Riders   Stages   Teams   Summits   Yearly  


 
Search by year

 2017 - St. 21:  14824 starters.
  5131 different riders.
  634 teams.
  2232 stages.
  454 restdays.
  439589.60 km.
  5653 abandonnees.


Top 3
Christopher Froome86:20:55
Rigoberto Uran86:21:49
Romain Bardet86:23:15
Warren Barguil169 pt.
Primoz Roglic80 pt.
Thomas De Gendt64 pt.
Michael Matthews359 pt.
André Greipel234 pt.
Edvald Boasson Hagen220 pt.
Simon Yates86:27:09
Louis Meintjes86:29:15
Emanuel Buchmann86:54:16
Facts from Tour de France 2014
  |   Stages.  |   Stage winners.  |   Days in yellow  |   Average speed.  |   Route.  |   Teams.  |   All riders.  |   Rookies.  |   Withdrawls.  |  

  |   GC.  |   Polka  |   Green  |   White  |   Summits. (In tour)  |   Summits. (Points)  |   Miscellaneous.  |  

Stage 21 on 27 - 07 - 2014
         Owning:    Vincenzo Nibali      Rafal Majka      Peter Sagan      Thibaut Pinot  

Pick a stage:  1 2 3 4 5 6 7 8 9 10 11 12 13 14 15 16 17 18 19 20 21
  ÉvryChamps-Élysées | Dist: 137.50 km.
Cat: 4Côte de Briis-sous-ForgesKAZDmitriy Gruzdev
1 point
 

Average speed for all riders in stage:  40,949 km./hr.
    Place:Name:Team:Time:Km/h:
GERMarcel KittelNLDTeam Giant - Shimano03:20:50  +  00:00:00=41,079 
NORAlexander KristoffRUSTeam Katusha03:20:50  +  00:00:00=41,079 
URSRamunas NavardauskasUSAGarmin Sharp03:20:50  +  00:00:00=41,079 
4 GERAndré GreipelBELLotto-Belisol Team03:20:50  +  00:00:00=41,079 
5 AUSMark RenshawBELOmega Pharma – Quick Step03:20:50  +  00:00:00=41,079 
6 AUTBernhard EiselGBRSky Procycling03:20:50  +  00:00:00=41,079 
7 FRABryan CoquardFRATeam Europcar03:20:50  +  00:00:00=41,079 
8 ITAAlessandro PetacchiBELOmega Pharma – Quick Step03:20:50  +  00:00:00=41,079 
9 SVKPeter SaganITACannondale Pro Cycling03:20:50  +  00:00:00=41,079 
10 FRARomain FeilluFRABretagne - Séché Environnement03:20:50  +  00:00:00=41,079 
11 ITADaniele BennatiRUSTinkoff Saxo03:20:50  +  00:00:00=41,079 
12 FRAArnaud DémareFRAFDJ.fr03:20:50  +  00:00:00=41,079 
13 BELGreg Van AvermaetUSABMC Racing Team03:20:50  +  00:00:00=41,079 
14 FRAAdrien PetitFRACofidis – Solutions Crédits03:20:50  +  00:00:00=41,079 
15 BELSep VanmarckeNLDBelkin Pro Cycling03:20:50  +  00:00:00=41,079 
16 ITADaniel OssUSABMC Racing Team03:20:50  +  00:00:00=41,079 
17 ITADavide CimolaiITALampre-Merida03:20:50  +  00:00:00=41,079 
18 FRARomain BardetFRAAg2r La Mondiale03:20:54  +  00:00:04=41,065 
19 USATejay Van GarderenUSABMC Racing Team03:20:54  +  00:00:04=41,065 
20 BELJohan VansummerenUSAGarmin Sharp03:20:54  +  00:00:04=41,065 
21 GERRoger KlugeCHEIAM Cycling03:20:56  +  00:00:06=41,058 
22 FRAKévin RezaFRATeam Europcar03:20:56  +  00:00:06=41,058 
23 NZLJack BauerUSAGarmin Sharp03:20:56  +  00:00:06=41,058 
24 NEDTom VeelersNLDTeam Giant - Shimano03:20:56  +  00:00:06=41,058 
25 ITAElia VivianiITACannondale Pro Cycling03:20:59  +  00:00:09=41,048 
26 GERJens VoigtUSATrek Factory Racing03:20:59  +  00:00:09=41,048 
27 ESPAlejandro ValverdeESPMovistar Team03:20:59  +  00:00:09=41,048 
28 FRASamuel DumoulinFRAAg2r La Mondiale03:20:59  +  00:00:09=41,048 
29 SVKPeter VelitsUSABMC Racing Team03:20:59  +  00:00:09=41,048 
30 NEDBram TankinkNLDBelkin Pro Cycling03:20:59  +  00:00:09=41,048 
31 ITAMatteo MontagutiFRAAg2r La Mondiale03:20:59  +  00:00:09=41,048 
32 FRASylvain ChavanelCHEIAM Cycling03:20:59  +  00:00:09=41,048 
33 ESPHaimar ZubeldiaUSATrek Factory Racing03:20:59  +  00:00:09=41,048 
34 FRASébastien MinardFRAAg2r La Mondiale03:20:59  +  00:00:09=41,048 
35 FRAChristophe RiblonFRAAg2r La Mondiale03:20:59  +  00:00:09=41,048 
36 FRAJean-Christophe PeraudFRAAg2r La Mondiale03:20:59  +  00:00:09=41,048 
37 JPNChristopher HornerITALampre-Merida03:20:59  +  00:00:09=41,048 
38 PORNelson OliveiraITALampre-Merida03:20:59  +  00:00:09=41,048 
39 WALGeraint ThomasGBRSky Procycling03:20:59  +  00:00:09=41,048 
40 FRAMickael DelageFRAFDJ.fr03:21:05  +  00:00:15=41,028 
41 NEDKoen De KortNLDTeam Giant - Shimano03:21:05  +  00:00:15=41,028 
42 SUIMartin ElmigerCHEIAM Cycling03:21:05  +  00:00:15=41,028 
43 SUIMichael AlbasiniAUSOrica - GreenEDGE03:21:05  +  00:00:15=41,028 
44 FRAAnthony DelaplaceFRABretagne - Séché Environnement03:21:05  +  00:00:15=41,028 
45 FRAJulien SimonFRACofidis – Solutions Crédits03:21:05  +  00:00:15=41,028 
46 SUIMichael SchärUSABMC Racing Team03:21:05  +  00:00:15=41,028 
47 NEDBauke MollemaNLDBelkin Pro Cycling03:21:05  +  00:00:15=41,028 
48 FRAWilliam BonnetFRAFDJ.fr03:21:05  +  00:00:15=41,028 
49 NEDLars BoomNLDBelkin Pro Cycling03:21:05  +  00:00:15=41,028 
50 NEDLaurens ten DamNLDBelkin Pro Cycling03:21:05  +  00:00:15=41,028 
51 ESPMarkel IrizarUSATrek Factory Racing03:21:05  +  00:00:15=41,028 
52 ESPLuis Angel MateFRACofidis – Solutions Crédits03:21:05  +  00:00:15=41,028 
53 LUXFränk SchleckUSATrek Factory Racing03:21:05  +  00:00:15=41,028 
54 CZELeopold KönigDEUTeam NetApp – Endura03:21:05  +  00:00:15=41,028 
55 USAPeter StetinaUSABMC Racing Team03:21:05  +  00:00:15=41,028 
56 FRAThibaut PinotFRAFDJ.fr03:21:05  +  00:00:15=41,028 
57 CZEJan BártaDEUTeam NetApp – Endura03:21:05  +  00:00:15=41,028 
58 FRAPierre RollandFRATeam Europcar03:21:05  +  00:00:15=41,028 
59 ESPMikel NieveGBRSky Procycling03:21:05  +  00:00:15=41,028 
60 NEDTom DumoulinNLDTeam Giant - Shimano03:21:05  +  00:00:15=41,028 
61 ESPDavid LopezGBRSky Procycling03:21:05  +  00:00:15=41,028 
62 FRAJean-Marc BideauFRABretagne - Séché Environnement03:21:05  +  00:00:15=41,028 
63 ITAMatteo TrentinBELOmega Pharma – Quick Step03:21:05  +  00:00:15=41,028 
64 FRAJérémy RoyFRAFDJ.fr03:21:05  +  00:00:15=41,028 
65 ESPImanol ErvitiESPMovistar Team03:21:05  +  00:00:15=41,028 
66 FRACyril GautierFRATeam Europcar03:21:05  +  00:00:15=41,028 
67 RUSYury TrofimovRUSTeam Katusha03:21:05  +  00:00:15=41,028 
68 SUIGregory RastUSATrek Factory Racing03:21:14  +  00:00:24=40,997 
69 DENMichael MørkøvRUSTinkoff Saxo03:21:14  +  00:00:24=40,997 
70 URSGatis SmukulisRUSTeam Katusha03:21:14  +  00:00:24=40,997 
71 ESPJon Izaguirre InsaustiESPMovistar Team03:21:14  +  00:00:24=40,997 
72 UKRAndriy GrivkoKAZAstana Pro Team03:21:14  +  00:00:24=40,997 
73 FRAMatthieu LadagnousFRAFDJ.fr03:21:14  +  00:00:24=40,997 
74 BELJürgen RoelandtsBELLotto-Belisol Team03:21:14  +  00:00:24=40,997 
75 NEDLieuwe WestraKAZAstana Pro Team03:21:14  +  00:00:24=40,997 
76 ITAMarco MarcatoITACannondale Pro Cycling03:21:14  +  00:00:24=40,997 
77 FRAFlorian GuillouFRABretagne - Séché Environnement03:21:14  +  00:00:24=40,997 
78 ITAMichele ScarponiKAZAstana Pro Team03:21:14  +  00:00:24=40,997 
79 FRABrice FeilluFRABretagne - Séché Environnement03:21:14  +  00:00:24=40,997 
80 ITAAlessandro VanottiKAZAstana Pro Team03:21:14  +  00:00:24=40,997 
81 ITAVincenzo NibaliKAZAstana Pro Team03:21:14  +  00:00:24=40,997 
82 FRABenoît JarrierFRABretagne - Séché Environnement03:21:14  +  00:00:24=40,997 
83 SUIMarcel WyssCHEIAM Cycling03:21:14  +  00:00:24=40,997 
84 LUXBen GastauerFRAAg2r La Mondiale03:21:14  +  00:00:24=40,997 
85 USAMatthew BuscheUSATrek Factory Racing03:21:14  +  00:00:24=40,997 
86 POLMichal GolasBELOmega Pharma – Quick Step03:21:14  +  00:00:24=40,997 
87 SLOKristjan KorenITACannondale Pro Cycling03:21:14  +  00:00:24=40,997 
88 HRVKristijan DurasekITALampre-Merida03:21:14  +  00:00:24=40,997 
89 COLJosé SerpaITALampre-Merida03:21:14  +  00:00:24=40,997 
90 FRAMickaël CherelFRAAg2r La Mondiale03:21:14  +  00:00:24=40,997 
91 POLBartosz HuzarskiDEUTeam NetApp – Endura03:21:14  +  00:00:24=40,997 
92 BELJurgen Van Den BroeckBELLotto-Belisol Team03:21:14  +  00:00:24=40,997 
93 POLRafal MajkaRUSTinkoff Saxo03:21:14  +  00:00:24=40,997 
94 NEDSteven KruijswijkNLDBelkin Pro Cycling03:21:14  +  00:00:24=40,997 
95 BELJens KeukeleireAUSOrica - GreenEDGE03:21:14  +  00:00:24=40,997 
96 NEDTom-Jelte SlagterUSAGarmin Sharp03:21:14  +  00:00:24=40,997 
97 ESPRubén PlazaESPMovistar Team03:21:14  +  00:00:24=40,997 
98 POLMaciej BodnarITACannondale Pro Cycling03:21:14  +  00:00:24=40,997 
99 GERMarcel SiebergBELLotto-Belisol Team03:21:14  +  00:00:24=40,997 
100 KAZDmitriy GruzdevKAZAstana Pro Team03:21:14  +  00:00:24=40,997 
101 SUIJakob FuglsangKAZAstana Pro Team03:21:14  +  00:00:24=40,997 
102 FRAJohn GadretESPMovistar Team03:21:14  +  00:00:24=40,997 
103 URSTanel KangertKAZAstana Pro Team03:21:14  +  00:00:24=40,997 
104 PORSergio PaulinhoRUSTinkoff Saxo03:21:14  +  00:00:24=40,997 
105 NEDSebastian LangeveldUSAGarmin Sharp03:21:14  +  00:00:24=40,997 
106 GERAndreas SchillingerDEUTeam NetApp – Endura03:21:14  +  00:00:24=40,997 
107 AUSZakkari DempsterDEUTeam NetApp – Endura03:21:14  +  00:00:24=40,997 
108 FRAFlorian VachonFRABretagne - Séché Environnement03:21:14  +  00:00:24=40,997 
109 AUSMichael RogersRUSTinkoff Saxo03:21:24  +  00:00:34=40,963 
110 GERJohn DegenkolbNLDTeam Giant - Shimano03:21:26  +  00:00:36=40,956 
111 GERTony MartinBELOmega Pharma – Quick Step03:21:29  +  00:00:39=40,946 
112 NEDNiki TerpstraBELOmega Pharma – Quick Step03:21:29  +  00:00:39=40,946 
113 FRAPerrig QuemeneurFRATeam Europcar03:21:31  +  00:00:41=40,940 
114 ITAMatteo TosattoRUSTinkoff Saxo03:21:31  +  00:00:41=40,940 
115 FRANicolas RocheRUSTinkoff Saxo03:21:31  +  00:00:41=40,940 
116 BELJan BakelantsBELOmega Pharma – Quick Step03:21:31  +  00:00:41=40,940 
117 FRAYohann GèneFRATeam Europcar03:21:35  +  00:00:45=40,926 
118 PORTiago PintoDEUTeam NetApp – Endura03:21:37  +  00:00:47=40,919 
119 GERPaul VossDEUTeam NetApp – Endura03:21:37  +  00:00:47=40,919 
120 JPNYukiya ArashiroFRATeam Europcar03:21:37  +  00:00:47=40,919 
121 FRAThomas VoecklerFRATeam Europcar03:21:45  +  00:00:55=40,892 
122 ITAGiovanni ViscontiESPMovistar Team03:21:45  +  00:00:55=40,892 
123 PORJosé João PimentaDEUTeam NetApp – Endura03:21:47  +  00:00:57=40,885 
124 AUSRichie PorteGBRSky Procycling03:21:47  +  00:00:57=40,885 
125 FRAArmindo FonsecaFRABretagne - Séché Environnement03:21:47  +  00:00:57=40,885 
126 NEDAlbert TimmerNLDTeam Giant - Shimano03:21:47  +  00:00:57=40,885 
127 SUISébastien ReichenbachCHEIAM Cycling03:21:47  +  00:00:57=40,885 
128 NEDRoy CurversNLDTeam Giant - Shimano03:21:47  +  00:00:57=40,885 
129 USAAlex HowesUSAGarmin Sharp03:21:47  +  00:00:57=40,885 
130 USABenjamin KingUSAGarmin Sharp03:21:47  +  00:00:57=40,885 
131 FRAAmaël MoinardUSABMC Racing Team03:21:47  +  00:00:57=40,885 
132 ESPBeñat IntxaustiESPMovistar Team03:21:47  +  00:00:57=40,885 
133 KAZMaxim IglinskiyKAZAstana Pro Team03:21:47  +  00:00:57=40,885 
134 FRANicolas EdetFRACofidis – Solutions Crédits03:21:52  +  00:01:02=40,869 
135 FRACédric PineauFRAFDJ.fr03:21:52  +  00:01:02=40,869 
136 AUSAdam HansenBELLotto-Belisol Team03:21:54  +  00:01:04=40,862 
137 ITAFabio SabatiniITACannondale Pro Cycling03:21:56  +  00:01:06=40,855 
138 GERMarcus BurghardtUSABMC Racing Team03:21:58  +  00:01:08=40,848 
139 ITALuca PaoliniRUSTeam Katusha03:22:02  +  00:01:12=40,835 
140 ITAAlessandro De MarchiITACannondale Pro Cycling03:22:07  +  00:01:17=40,818 
141 FRAJean-Marc MarinoITACannondale Pro Cycling03:22:07  +  00:01:17=40,818 
142 AUSSimon ClarkeAUSOrica - GreenEDGE03:22:10  +  00:01:20=40,808 
143 AUSLuke DurbridgeAUSOrica - GreenEDGE03:22:10  +  00:01:20=40,808 
144 CANChristian MeierAUSOrica - GreenEDGE03:22:10  +  00:01:20=40,808 
145 USADanny PateGBRSky Procycling03:22:10  +  00:01:20=40,808 
146 CANSvein TuftAUSOrica - GreenEDGE03:22:10  +  00:01:20=40,808 
147 FRARudy MolardFRACofidis – Solutions Crédits03:22:10  +  00:01:20=40,808 
148 ESPJoaquim RodriguezRUSTeam Katusha03:22:10  +  00:01:20=40,808 
149 RUSVladimir IsaichevRUSTeam Katusha03:22:10  +  00:01:20=40,808 
150 FRATony GallopinBELLotto-Belisol Team03:22:10  +  00:01:20=40,808 
151 FRAJérôme PineauCHEIAM Cycling03:22:10  +  00:01:20=40,808 
152 URSRein TaaramäeFRACofidis – Solutions Crédits03:22:10  +  00:01:20=40,808 
153 FRAArnaud GérardFRABretagne - Séché Environnement03:22:10  +  00:01:20=40,808 
154 BELMaarten WynantsNLDBelkin Pro Cycling03:22:10  +  00:01:20=40,808 
155 NEDTom LeezerNLDBelkin Pro Cycling03:22:10  +  00:01:20=40,808 
156 FRAArnold JeannessonFRAFDJ.fr03:22:10  +  00:01:20=40,808 
157 FRACyril LemoineFRACofidis – Solutions Crédits03:22:16  +  00:01:26=40,788 
158 POLMichal KwiatkowskiBELOmega Pharma – Quick Step03:22:20  +  00:01:30=40,774 
159 DENLars BakBELLotto-Belisol Team03:22:31  +  00:01:41=40,737 
160 ESPJesus HerradaESPMovistar Team03:22:49  +  00:01:59=40,677 
161 BLRVasil KiryienkaGBRSky Procycling03:24:29  +  00:03:39=40,346 
162 FRABlel KadriFRAAg2r La Mondiale03:24:55  +  00:04:05=40,260 
163 FRAAlexandre PichotFRATeam Europcar03:25:23  +  00:04:33=40,169 
164 CHNCheng JiNLDTeam Giant - Shimano03:30:15  +  00:09:25=39,239 


Todays birthdays.

1886  Jean Meziere
1887  Pierre Herbette
1887  Octave Lapize
1898  Felix Manthey
1920  René Biever
1920  Georges Ramoulux
1928  René Marigil
1940  Jean-Pierre Genet
1944  Giannino Bianco
1945  Eddy Cael
1950  Bert Pronk
1954  Marc Dierickx
1961  Chris Carmichael
1973  Levi Leipheimer